Notices

What's New in latest Release from April 7th, 2021:

- Updated Glossary, including Speed of Maximum Gust, and Total Hourly Precipitation

- Updated national and regional climate services offices contacts and prices information

- Addition of station inventory lists for 1981-2010, 1971-2000, and 1961-1990 Normals.

If you haven't already, please take our survey and provide feedback about our website: https://eccc.sondage-survey.ca/f/LanguageSelection.aspx?s=442ca660-fcf1-47c0-95a9-59707d6fd709

Hourly Data Report for September 01, 2019

QUALICUM BEACH AIRPORT
BRITISH COLUMBIA
Current Station Operator: ECCC - MSC

49°20'14.000" N
124°23'38.000" W
58.20 m
1026562
71766
VOQ

Download Data

Hourly Data (September 2019)
Hourly Data Report for September 1, 2019
TIME
LST
Temp Definition
°C
Dew Point Definition
°C
Rel Hum Definition
%
Precip. Amount Definition
mm

Wind Dir Definition
10's deg

Wind Spd Definition
km/h
Visibility Definition
km
Stn Press Definition
kPa
Hmdx Definition


Wind Chill Definition


Weather Definition


00:00 14.6 14.1 97 0.0   0   100.74     LegendNANA
01:00 15.3 14.8 97 0.0 24 6   100.72     LegendNANA
02:00 15.7 14.7 94 0.0 24 4   100.73     LegendNANA
03:00 13.6 13.0 96 0.0 21 5   100.72     LegendNANA
04:00 13.6 13.1 97 0.0 17 2   100.72     LegendNANA
05:00 13.9 13.3 97 0.0 22 1   100.73     LegendNANA
06:00 14.1 13.6 97 0.0   0   100.77     LegendNANA
07:00 15.7 15.1 97 0.0 0 1   100.81     LegendNANA
08:00 17.0 15.9 93 0.0   0   100.83     LegendNANA
09:00 18.0 15.0 83 0.0   0   100.85     LegendNANA
10:00 17.8 15.6 87 0.2 5 3   100.88     LegendNANA
11:00 18.7 15.0 79 0.0 31 5   100.91     LegendNANA
12:00 19.2 15.4 79 0.0 6 5   100.92     LegendNANA
13:00 19.9 16.2 79 0.0 7 3   100.94     LegendNANA
14:00 20.6 14.8 69 0.0 6 6   100.91     LegendNANA
15:00 21.2 14.8 67 0.0 7 3   100.89 25   LegendNANA
16:00 18.7 16.3 86 0.4 24 6   100.92     LegendNANA
17:00 18.2 16.8 91 0.2 25 6   100.93     LegendNANA
18:00 17.9 16.3 90 0.0 28 7   100.93     LegendNANA
19:00 17.5 15.8 90 0.0 27 3   100.94     LegendNANA
20:00 16.3 15.1 93 0.0 27 4   100.96     LegendNANA
21:00 14.8 14.1 95 0.0 17 1   100.98     LegendNANA
22:00 15.1 14.2 95 0.0 28 5   101.02     LegendNANA
23:00 14.6 13.8 95 0.0 28 3   101.04     LegendNANA

Notes on Data Quality.

Legend

  • E = Estimated
  • M = Missing
  • NA = Not Available*
  • [empty] = Indicates an unobserved value
Date modified: